{"data":{"norad_id":58795,"intl_designator":"2024-012J","name":"STARLINK-31161","alt_names":[],"object_type":"PAYLOAD","status":"ACTIVE","operator":null,"country":"US","launch_date":"2024-01-15","launch_site_code":"AFETR","launch_vehicle":null,"mission":null,"orbit_class":"UNKNOWN","rcs_meters":null,"size_class":null,"mass_kg":null,"dimensions":null,"purposes":["comms"],"wikipedia_slug":null,"has_3d_model":false,"image_url":null,"decayed_at":null,"tle_current":{"epoch":"2026-09-20T23:15:02.267136Z","epoch_age_seconds":112030,"freshness":"FRESH","line1":"1 58795U 24012J   26263.96877624 -.00000605  00000+0 -12477-4 0  9998","line2":"2 58795  43.0012 142.2224 0000989 270.1884  89.8855 15.27572280151109","mean_motion":15.2757228,"eccentricity":9.89e-5,"inclination_deg":43.0012,"raan_deg":142.2224,"arg_perigee_deg":270.1884,"mean_anomaly_deg":89.8855,"bstar":-1.2477e-5,"rev_number":15110,"period_min":94.267225116182,"perigee_km":482.39363900314,"apogee_km":483.75078618539,"semimajor_km":6861.2092125943,"source":"CELESTRAK","updated_at":"2026-09-21T09:00:33.980160Z"}}}